Tracking 31032 objects as of 14-Jul-2025
HD Live streaming from Space Station
objects crossing your sky now

STARLINK-6245

Track STARLINK-6245 now!
10-day predictions
STARLINK-6245 is classified as:


NORAD ID: 57079
Int'l Code: 2023-088AH
Perigee: 565.4 km
Apogee: 567.1 km
Inclination: 43.0 °
Period: 95.8 minutes
Semi major axis: 6937 km
RCS: Unknown
Launch date: June 22, 2023
Source: United States (US)
Launch site: AIR FORCE WESTERN TEST RANGE (AFWTR)
Your satellite tracking list
Your tracking list is empty




NASA's NSSDC Master Catalog

Two Line Element Set (TLE):
1 57079U 23088AH  25194.74243189 -.00000232  00000-0 -21158-5 0  9999
2 57079  43.0044 313.0308 0001239 268.2065  91.8636 15.02535307114579
Source of the keplerian elements: AFSPC